Location: *
(41.7492°S, 135.4150°W)
Time: 19:08:17
(UTC+00:00)

CZ-4B R/B - Pass Details

Date: 20 September 2021
Orbit: 494 x 646 km, 97.8° (Epoch: 15 October)

Event Time Altitude Azimuth Distance (km) Brightness Sun altitude
Rises 13:53:29 0° 350° (N) 2,581 7.0 -12.0°
Reaches altitude 10° 13:55:44 10° 338° (NNW) 1,704 6.0 -11.6°
Maximum altitude 13:58:56 29° 277° (W) 961 4.5 -11.0°
Drops below altitude 10° 14:02:13 10° 215° (SW) 1,741 6.1 -10.4°
Sets 14:04:33 0° 203° (SSW) 2,650 7.1 -10.0°
